Terminal Aerodrome Forecast
Issued by NWS Duluth, MN

Home | Current Version | Previous Version | Text Only | Print | Product List | Glossary On
Versions: 1 2 3 4 5 6 7 8 9 10 11 12 13 14 15 16 17 18 19 20 21 22 23 24
000
FTUS43 KDLH 051100
TAFDLH
TAF
KDLH 051139Z 0512/0612 29007KT P6SM SKC
     FM051600 27010KT P6SM FEW025
     FM052000 24011KT P6SM SCT035
     FM060400 21012KT P6SM FEW035 WS015/24042KT
     FM061100 24008KT P6SM SCT040 BKN080=

USA.gov is the U.S. government's official web portal to all federal, state and local government web resources and services.